SHELIKOF STRAIT, AK (46077)

Conditions for Tuesday

Daily
Weekly
Monthly
Marine Data Graph

Marine & Boating Location Search

Enter a coastal zip code for marine weather.

General Information

Location: 57.892 North -154.291 West
Buoy Type: 6-meter NOMAD buoy
Buoy Hull: 6N52
Payload: ARES payload
Owned by: NDBC
Windspeed: Measured by obtained from anemometer
Sea Surface: Measured by Intake
Note: Station 46077 has been recovered.

Weather and Wave Data

Time Temp Humidity Wind Dominant Wave Wind Wave Wave Swell Pressure
  Air
(°F)
Water
(°F)
  Dir Speed
(kts)
Speed
(mph)
Period
(sec)
Height
(ft)
Range
(ft)
Period
(sec)
Height
(ft)
Range
(ft)
Period
(sec)
Height
(ft)
Range
(ft)
Atmo.
(in)
Tend.
(in)
20:50 39 40 97 SSE 5.8 6.7 10 3.28 exactly 3.3 3 1.64 0.82 - 2.46 10 3.28 2.46 - 4.10 29.49 +0.01
22:50 40 40 88 ENE 3.9 4.5 8 2.62 exactly 2.6 4 1.64 0.82 - 2.46 8 1.64 0.82 - 2.46 29.50 +0.02
23:50 39 40 98 NNE 7.8 8.9 10 2.95 exactly 3.0 4 1.64 0.82 - 2.46 10 3.28 2.46 - 4.10 29.51 +0.02
00:50 40 40 79 East 9.7 11.2 10 2.62 exactly 2.6 4 1.64 0.82 - 2.46 10 1.64 0.82 - 2.46 29.50 +0.01
01:50 40 40 79 East 13.6 15.7 11 2.95 exactly 3.0 6 1.64 0.82 - 2.46 11 1.64 0.82 - 2.46 29.50 -
02:50 40 40 82 East 11.7 13.4 11 2.95 exactly 3.0 4 1.64 0.82 - 2.46 11 1.64 0.82 - 2.46 29.50 -0.01
03:50 40 40 87 ENE 11.7 13.4 11 2.95 exactly 3.0 3 1.64 0.82 - 2.46 11 1.64 0.82 - 2.46 29.50 -
04:50 40 40 86 ENE 13.6 15.7 11 2.95 exactly 3.0 3 1.64 0.82 - 2.46 11 1.64 0.82 - 2.46 29.49 -
05:50 40 40 82 ENE 11.7 13.4 11 2.95 exactly 3.0 3 1.64 0.82 - 2.46 11 3.28 2.46 - 4.10 29.49 -
06:50 40 40 79 NE 11.7 13.4 10 2.62 exactly 2.6 5 1.64 0.82 - 2.46 10 1.64 0.82 - 2.46 29.48 -0.02
07:50 40 40 84 NE 13.6 15.7 10 2.62 exactly 2.6 6 1.64 0.82 - 2.46 10 1.64 0.82 - 2.46 29.48 -0.02
08:50 40 40 86 NE 11.7 13.4 10 2.30 exactly 2.3 3 1.64 0.82 - 2.46 10 1.64 0.82 - 2.46 29.48 -0.01
09:50 40 40 87 NE 9.7 11.2 9 1.97 exactly 2.0 4 1.64 0.82 - 2.46 9 1.64 0.82 - 2.46 29.49 +0.01
10:50 40 40 83 NNE 7.8 8.9 10 2.30 exactly 2.3 3 1.64 0.82 - 2.46 10 1.64 0.82 - 2.46 29.51 +0.03
11:50 40 40 69 NNE 7.8 8.9 11 2.30 exactly 2.3 3 1.64 0.82 - 2.46 11 1.64 0.82 - 2.46 29.52 +0.04
12:50 41 40 53 NNE 7.8 8.9 9 1.97 exactly 2.0 - - - 9 1.64 0.82 - 2.46 29.54 +0.04
13:50 40 40 56 NE 7.8 8.9 10 2.30 exactly 2.3 - - - 10 1.64 0.82 - 2.46 29.54 +0.03
14:50 40 40 50 ESE 1.9 2.2 10 2.30 exactly 2.3 - - - 10 1.64 0.82 - 2.46 29.54 +0.02
15:50 40 40 79 NW 3.9 4.5 11 1.97 exactly 2.0 - - - 11 1.64 0.82 - 2.46
-
-
16:50 39 40 91 West 5.8 6.7 10 1.97 exactly 2.0 - - - 10 1.64 0.82 - 2.46 29.52 -0.01
17:50 39 40 83 WSW 7.8 8.9 10 1.97 exactly 2.0 - - - 10 1.64 0.82 - 2.46 29.51 -0.03
18:50 38 40 96 West 9.7 11.2 10 1.97 exactly 2.0 5 1.64 0.82 - 2.46 10 1.64 0.82 - 2.46 29.51 -0.02
19:50 37 40 92 West 11.7 13.4 10 1.97 exactly 2.0 5 1.64 0.82 - 2.46 10 1.64 0.82 - 2.46 29.51 -0.01
20:50 36 40 93 West 13.6 15.7 10 1.97 exactly 2.0 3 1.64 0.82 - 2.46 10 1.64 0.82 - 2.46 29.51 -
22:50 35 40 76 WNW 17.5 20.1 5 3.28 exactly 3.3 5 3.28 2.46 - 4.10 - - - 29.52 +0.01
23:50 34 40 70 West 19.4 22.4 5 4.27 exactly 4.3 5 4.92 4.10 - 5.74 - - - 29.53 +0.02
01:50 31 40 67 West 23.3 26.8 6 5.25 exactly 5.2 6 4.92 4.10 - 5.74 - - - 29.54 +0.02
02:50 28 40 63 WNW 27.2 31.3 6 6.23 exactly 6.2 6 6.56 5.74 - 7.38 - - - 29.54 +0.01
03:50 26 40 60 West 21.4 24.6 7 5.91 exactly 5.9 7 6.56 5.74 - 7.38 - - - 29.53 -

Detailed Wave Spectra

Time Water Depth Wave Height Spectral Peak Period Average Wave Period Sampling Interval Wave Record
20:00 696 ft 2.66 ft 11.4 sec 4.9 sec 0.6 sec 2400 sec
21:00 696 ft 3.31 ft 10.0 sec 5.9 sec 0.6 sec 2400 sec
22:00 696 ft 2.66 ft 8.3 sec 4.9 sec 0.6 sec 2400 sec
23:00 696 ft 2.72 ft 8.3 sec 4.7 sec 0.6 sec 2400 sec
00:00 696 ft 2.92 ft 10.0 sec 4.9 sec 0.6 sec 2400 sec
01:00 696 ft 2.76 ft 10.0 sec 4.9 sec 0.6 sec 2400 sec
02:00 696 ft 2.79 ft 11.4 sec 4.7 sec 0.6 sec 2400 sec
03:00 696 ft 2.99 ft 11.4 sec 4.4 sec 0.6 sec 2400 sec
04:00 696 ft 2.95 ft 10.8 sec 4.5 sec 0.6 sec 2400 sec
05:00 696 ft 2.82 ft 10.8 sec 4.6 sec 0.6 sec 2400 sec
06:00 696 ft 3.08 ft 10.8 sec 5.0 sec 0.6 sec 2400 sec
07:00 696 ft 2.56 ft 10.0 sec 4.4 sec 0.6 sec 2400 sec
08:00 696 ft 2.62 ft 10.0 sec 4.6 sec 0.6 sec 2400 sec
09:00 696 ft 2.36 ft 10.0 sec 4.1 sec 0.6 sec 2400 sec
10:00 696 ft 2.10 ft 9.1 sec 4.1 sec 0.6 sec 2400 sec
11:00 696 ft 2.17 ft 10.0 sec 4.9 sec 0.6 sec 2400 sec
12:00 696 ft 2.20 ft 10.8 sec 5.4 sec 0.6 sec 2400 sec
13:00 696 ft 2.10 ft 9.1 sec 5.7 sec 0.6 sec 2400 sec
14:00 696 ft 2.43 ft 10.0 sec 6.5 sec 0.6 sec 2400 sec
15:00 696 ft 2.36 ft 10.0 sec 6.3 sec 0.6 sec 2400 sec
16:00 696 ft 2.07 ft 10.8 sec 6.4 sec 0.6 sec 2400 sec
17:00 696 ft 2.10 ft 10.0 sec 6.1 sec 0.6 sec 2400 sec
18:00 696 ft 2.03 ft 10.0 sec 5.9 sec 0.6 sec 2400 sec
20:00 696 ft 1.87 ft 10.0 sec 4.6 sec 0.6 sec 2400 sec
21:00 696 ft 2.07 ft 10.0 sec 3.8 sec 0.6 sec 2400 sec
23:00 696 ft 3.22 ft 4.5 sec 3.8 sec 0.6 sec 2400 sec
00:00 696 ft 4.13 ft 5.3 sec 4.1 sec 0.6 sec 2400 sec
01:00 696 ft 4.56 ft 5.6 sec 4.4 sec 0.6 sec 2400 sec
02:00 696 ft 5.38 ft 5.6 sec 4.4 sec 0.6 sec 2400 sec
03:00 696 ft 6.33 ft 6.3 sec 4.7 sec 0.6 sec 2400 sec